Location: Bessat
(45.8735°N, 1.9924°E)
Time: 08:08:11
(UTC+00:00)

Cosmos 864 Rocket - Pass Details

Date: 11 May 2021
Orbit: 952 x 992 km, 82.9° (Epoch: 15 June)

Event Time Altitude Azimuth Distance (km) Brightness Sun altitude
Rises 22:58:40 0° 350° (N) 3,654 8.9 -25.0°
Reaches altitude 10° 23:01:11 10° 350° (N) 2,700 7.9 -25.1°
Maximum altitude 23:07:21 81° 264° (W) 971 4.4 -25.3°
Enters shadow 23:08:32 60° 190° (S) 1,085 4.4 -25.4°
